Stations météo

Publicité
Grenoble/St.Geoirs, France (7486): Température de l'air & dewpoint: 14.07.2018 01:00:00 - 20.07.2018 01:00:00 (CEST)Grenoble/St.Geoirs, France (7486): Température de l'air 5cm: 14.07.2018 01:00:00 - 20.07.2018 01:00:00 (CEST)Grenoble/St.Geoirs, France (7486): Température de l'air -20cm & Température de l'air -100cm: 14.07.2018 01:00:00 - 20.07.2018 01:00:00 (CEST)Grenoble/St.Geoirs, France (7486): Vitesse du vent & gusts: 14.07.2018 01:00:00 - 20.07.2018 01:00:00 (CEST)Grenoble/St.Geoirs, France (7486): Direction du vent: 14.07.2018 01:00:00 - 20.07.2018 01:00:00 (CEST)Grenoble/St.Geoirs, France (7486): reduced air pressure: 14.07.2018 01:00:00 - 20.07.2018 01:00:00 (CEST)Grenoble/St.Geoirs, France (7486): visibility: 14.07.2018 01:00:00 - 20.07.2018 01:00:00 (CEST)Grenoble/St.Geoirs, France (7486): Ensoleillement: 14.07.2018 01:00:00 - 20.07.2018 01:00:00 (CEST)Grenoble/St.Geoirs, France (7486): Quantités de précipitations: 14.07.2018 01:00:00 - 20.07.2018 01:00:00 (CEST)
Date & Time tt [°C] td [°C] tt 5cm [°C] tt -20cm [°C] tt -100cm [°C] ff [km/h] ff [knt] fx [km/h] fx [knt] dd ppp [hPa] vv [km] sd [min] rr [mm]
20.07.2018 01:00:00 17,5 12,4 14,3 23,9 19,3 10 6 13 7 ESE 1015,0 43 0 0,0
20.07.2018 00:00:00 18,1 12,1 14,8 23,9 19,2 10 5 11 6 E 1014,9 41 0 0,0
19.07.2018 23:00:00 18,4 12,8 15,9 23,9 19,2 9 5 10 6 E 1014,5 53 0 0,0
19.07.2018 22:00:00 21,9 12,7 17,5 23,8 19,2 7 4 13 7 ESE 1013,8 57 0 0,0
19.07.2018 21:00:00 26,4 10,9 22,1 23,6 19,2 6 3 11 6 NE 1012,6 60 55 0,0
19.07.2018 20:00:00 29,2 9,3 30,8 23,4 19,2 8 5 21 11 N 1012,2 48 60 0,0
19.07.2018 19:00:00 30,1 10,1 35,7 23,2 19,2 10 6 24 13 WNW 1012,2 24 60 0,0
19.07.2018 18:00:00 30,6 10,0 38,0 22,9 19,2 13 7 29 15 NW 1012,0 51 60 0,0
19.07.2018 17:00:00 30,5 9,9 39,2 22,6 19,2 13 7 29 16 NW 1012,4 51 60 0,0
19.07.2018 16:00:00 30,1 10,6 39,1 22,4 19,2 9 5 21 12 W 1012,9 18 60 0,0
19.07.2018 15:00:00 29,4 10,5 38,2 22,2 19,2 6 3 23 12 W 1013,3 48 60 0,0
19.07.2018 14:00:00 28,9 11,5 37,3 22,1 19,2 9 5 24 13 N 1013,8 47 60 0,0
19.07.2018 13:00:00 28,6 11,6 36,0 22,1 19,2 8 5 24 13 NNE 1014,2 53 60 0,0
19.07.2018 12:00:00 27,7 11,3 34,5 22,1 19,2 8 5 26 14 NNW 1014,5 59 60 0,0
19.07.2018 11:00:00 26,2 13,7 32,1 22,2 19,2 6 3 16 9 SW 1014,8 60 60 0,0
19.07.2018 10:00:00 24,7 12,9 29,9 22,4 19,2 4 2 11 6 NE 1014,8 47 60 0,0
19.07.2018 09:00:00 22,9 13,9 23,6 22,5 19,2 5 3 11 6 ESE 1015,0 6 60 0,0
19.07.2018 08:00:00 19,0 12,5 19,1 22,7 19,2 8 4 11 6 ESE 1015,6 30 60 0,0
19.07.2018 07:00:00 15,1 12,0 10,7 22,9 19,2 4 2 12 6 ESE 1016,1 8 27 0,0
19.07.2018 06:00:00 13,6 10,8 10,6 23,0 19,2 8 4 14 8 E 1016,3 43 0 0,0
19.07.2018 05:00:00 14,3 10,9 10,7 23,1 19,2 7 4 10 5 SE 1016,2 50 0 0,0
19.07.2018 04:00:00 15,1 11,7 11,8 23,3 19,2 7 4 9 5 E 1016,5 51 0 0,0
19.07.2018 03:00:00 16,5 11,4 12,5 23,4 19,2 4 2 12 7 SE 1016,4 51 0 0,0
19.07.2018 02:00:00 17,4 12,5 15,4 23,5 19,1 8 4 16 8 E 1016,1 51 0 0,0
19.07.2018 01:00:00 17,4 13,1 15,4 23,5 19,1 7 4 12 7 E 1016,2 54 0 0,0
19.07.2018 00:00:00 18,8 13,4 15,7 23,6 19,2 9 5 12 6 ESE 1016,3 47 0 0,0
18.07.2018 23:00:00 19,8 13,3 15,4 23,5 19,1 5 3 9 5 SE 1015,3 43 0 0,0
18.07.2018 22:00:00 22,2 11,9 16,5 23,4 19,2 3 2 8 4 SE 1014,7 14 0 0,0
18.07.2018 21:00:00 25,7 11,8 23,4 23,2 19,1 3 2 19 10 NNE 1013,5 60 46 0,0
18.07.2018 20:00:00 28,0 10,7 30,4 23,0 19,1 10 6 21 12 NNW 1013,1 56 60 0,0
18.07.2018 19:00:00 29,0 11,1 34,6 22,7 19,1 12 6 27 15 NNW 1012,6 45 60 0,0
18.07.2018 18:00:00 29,5 12,0 33,2 22,5 19,1 10 5 25 14 NW 1012,9 53 51 0,0
18.07.2018 17:00:00 29,5 12,9 34,3 22,2 19,1 10 5 27 15 NW 1013,3 13 54 0,0
18.07.2018 16:00:00 28,7 12,6 37,3 22,1 19,1 9 5 25 14 NNE 1013,7 52 60 0,0
18.07.2018 15:00:00 28,1 13,6 36,3 21,9 19,1 13 7 29 16 NNW 1014,1 53 60 0,0
18.07.2018 14:00:00 26,8 13,2 35,5 21,8 19,1 14 8 29 16 NW 1014,7 53 60 0,0
18.07.2018 13:00:00 26,3 13,4 33,1 21,7 19,1 14 8 24 13 NW 1015,1 51 60 0,0
18.07.2018 12:00:00 25,6 13,4 32,1 21,8 19,1 12 7 26 14 N 1015,8 48 60 0,0
18.07.2018 11:00:00 24,9 13,8 32,0 21,8 19,1 9 5 23 13 N 1016,1 59 60 0,0
18.07.2018 10:00:00 23,6 12,9 28,5 21,9 19,1 7 4 18 10 N 1016,5 50 60 0,0
18.07.2018 09:00:00 22,3 12,3 25,5 22,1 19,1 9 5 17 9 N 1016,8 43 60 0,0
18.07.2018 08:00:00 19,2 13,8 17,7 22,3 19,1 4 2 6 4 ESE 1017,1 35 60 0,0
18.07.2018 07:00:00 15,1 12,6 11,7 22,4 19,1 4 2 9 5 ESE 1017,7 35 28 0,0
18.07.2018 06:00:00 14,1 11,3 10,8 22,5 19,1 5 3 10 5 ESE 1017,9 40 0 0,0
18.07.2018 05:00:00 14,7 11,8 11,5 22,7 19,1 5 3 9 5 ESE 1017,8 44 0 0,0
18.07.2018 04:00:00 16,8 11,3 12,8 22,8 19,1 3 2 15 8 E 1017,7 49 0 0,0
18.07.2018 03:00:00 18,9 11,9 14,2 23,0 19,1 8 4 13 7 SE 1017,7 51 0 0,0
18.07.2018 02:00:00 19,1 12,1 13,8 23,0 19,1 4 2 14 7 NNW 1018,0 47 0 0,0
18.07.2018 01:00:00 19,2 12,0 14,9 23,1 19,1 4 2 16 9 NNW 1018,0 46 0 0,0
18.07.2018 00:00:00 20,9 12,3 17,2 23,1 19,1 3 2 19 10 SW 1017,3 60 0 0,0
17.07.2018 23:00:00 20,9 12,8 16,9 23,1 19,1 3 2 15 8 WSW 1017,0 60 0 0,0
17.07.2018 22:00:00 22,6 12,8 20,2 23,0 19,1 4 2 32 17 NW 1016,6 44 0 0,0
17.07.2018 21:00:00 24,6 13,2 23,7 22,9 19,1 15 8 30 16 N 1015,6 45 57 0,0
17.07.2018 20:00:00 26,3 12,7 - - - 16 9 34 18 N 1015,1 55 - -
17.07.2018 19:00:00 27,5 13,1 31,8 22,5 19,1 18 10 35 19 N 1014,8 26 60 0,0
17.07.2018 18:00:00 28,1 12,0 32,2 22,2 19,1 19 10 36 19 NNW 1014,8 26 58 0,0
17.07.2018 17:00:00 28,5 13,6 35,2 22,0 19,1 18 10 35 19 NW 1015,0 28 60 0,0
17.07.2018 16:00:00 28,3 13,0 35,3 21,8 19,1 22 12 42 23 NNW 1015,2 26 60 0,0
17.07.2018 15:00:00 27,7 13,2 34,9 21,6 19,1 23 12 41 22 NNW 1015,6 28 60 0,0
17.07.2018 14:00:00 27,2 13,5 34,5 21,5 19,1 21 11 37 20 NNW 1016,0 32 60 0,0
17.07.2018 13:00:00 25,8 14,0 32,7 21,5 19,1 16 9 35 19 NW 1016,6 34 58 0,0
17.07.2018 12:00:00 24,6 13,8 29,9 21,5 19,0 11 6 26 14 NNW 1016,9 20 56 0,0
17.07.2018 11:00:00 23,4 14,1 28,5 21,6 19,1 15 8 28 15 NNW 1017,1 32 60 0,0
17.07.2018 10:00:00 22,5 14,6 28,8 21,7 19,0 12 7 21 11 N 1017,0 33 58 0,0
17.07.2018 09:00:00 21,9 15,5 23,5 21,8 19,1 6 3 16 9 NNE 1016,9 30 60 0,0
17.07.2018 08:00:00 18,3 14,8 15,9 21,9 19,1 3 1 5 3 SSE 1017,4 22 46 0,0
17.07.2018 07:00:00 15,7 13,4 13,4 22,1 19,1 5 3 11 6 SSE 1017,4 21 6 0,0
17.07.2018 06:00:00 15,3 12,6 12,7 22,2 19,0 4 2 9 5 E 1017,1 28 0 0,0
17.07.2018 05:00:00 16,6 12,9 13,8 22,4 19,1 3 2 11 6 NE 1016,4 33 0 0,0
17.07.2018 04:00:00 16,7 13,2 13,4 22,5 19,1 8 4 11 6 ESE 1016,2 37 0 0,0
17.07.2018 03:00:00 17,1 12,2 13,9 22,6 19,0 5 3 15 8 NE 1015,9 41 0 0,0
17.07.2018 02:00:00 18,1 12,1 13,9 22,7 19,1 4 2 9 5 WNW 1015,7 42 0 0,0
17.07.2018 01:00:00 20,0 12,2 15,2 22,7 19,0 3 1 16 9 E 1014,9 45 0 0,0
17.07.2018 00:00:00 21,0 12,2 18,0 22,7 19,0 7 4 25 14 W 1014,5 53 0 0,0
16.07.2018 23:00:00 21,8 12,4 19,9 22,7 19,1 9 5 30 16 WNW 1013,8 60 0 0,0
16.07.2018 22:00:00 22,5 12,4 21,1 22,6 19,0 19 10 35 19 NW 1012,5 60 0 0,0
16.07.2018 21:00:00 25,1 10,5 24,0 22,5 19,0 16 9 36 19 NNW 1010,7 60 8 0,0
16.07.2018 20:00:00 26,9 9,3 27,3 22,4 19,1 23 13 41 22 NNW 1009,8 47 39 0,0
16.07.2018 19:00:00 28,5 10,2 31,4 22,1 19,0 26 14 43 23 NNW 1008,6 49 60 0,0
16.07.2018 18:00:00 28,9 10,1 33,6 21,9 19,1 20 11 37 20 NNW 1008,1 60 60 0,0
16.07.2018 17:00:00 29,4 11,9 34,7 21,6 19,0 19 10 37 20 NNW 1007,9 31 60 0,0
16.07.2018 16:00:00 29,4 14,0 35,5 21,4 19,1 21 11 34 19 NW 1008,0 19 58 0,0
16.07.2018 15:00:00 28,0 14,6 35,0 21,3 19,0 16 9 34 18 N 1009,0 36 60 0,0
16.07.2018 14:00:00 27,9 13,8 34,3 21,2 19,1 14 7 32 17 N 1009,2 60 60 0,0
16.07.2018 13:00:00 26,9 13,3 31,7 21,1 19,1 16 9 29 16 N 1009,9 60 51 0,0
16.07.2018 12:00:00 26,2 13,3 30,0 21,1 19,0 10 5 22 12 NE 1010,5 20 60 0,0
16.07.2018 11:00:00 24,2 14,6 25,3 21,2 19,0 10 5 24 13 NE 1010,8 18 48 0,0
16.07.2018 10:00:00 22,4 14,8 23,2 21,3 19,1 14 8 27 15 NE 1011,4 54 42 0,0
16.07.2018 09:00:00 21,3 14,5 18,8 21,4 19,0 16 9 29 16 ENE 1011,9 40 55 0,0
16.07.2018 08:00:00 17,8 14,5 15,8 21,5 19,0 14 8 24 13 ENE 1012,7 39 4 0,0
16.07.2018 07:00:00 16,1 15,1 12,3 21,7 19,1 5 3 19 11 E 1013,2 36 29 0,0
16.07.2018 06:00:00 14,1 13,1 11,3 21,8 19,0 9 5 14 8 E 1013,8 34 0 0,2
16.07.2018 05:00:00 14,5 13,7 11,7 22,0 19,1 9 5 12 7 ESE 1014,5 31 0 0,0
16.07.2018 04:00:00 14,3 13,3 10,8 22,1 19,0 7 4 11 6 ESE 1015,1 18 0 0,0
16.07.2018 03:00:00 14,5 13,5 11,5 22,2 19,0 4 2 9 5 ENE 1015,6 15 0 0,0
16.07.2018 02:00:00 14,9 13,6 11,4 22,4 19,1 5 3 11 6 NE 1015,7 18 0 0,0
16.07.2018 01:00:00 16,3 14,5 13,0 22,4 19,1 6 3 20 11 SSE 1015,8 37 0 0,0
16.07.2018 00:00:00 17,0 14,5 15,4 22,4 19,1 13 7 23 12 E 1015,5 50 0 0,0
15.07.2018 23:00:00 18,2 15,4 16,9 22,4 19,1 11 6 27 14 ESE 1015,7 44 0 0,2
15.07.2018 22:00:00 19,3 15,4 17,3 22,4 19,1 15 8 30 16 ESE 1015,8 12 0 0,6
15.07.2018 21:00:00 22,7 12,6 21,9 22,3 19,1 15 8 40 22 NNE 1013,8 56 0 0,0
15.07.2018 20:00:00 23,6 14,3 22,8 22,2 19,1 14 7 28 15 E 1013,1 49 2 0,0
15.07.2018 19:00:00 24,9 14,4 25,8 22,0 19,1 16 9 43 23 N 1012,4 33 23 0,0
15.07.2018 18:00:00 27,2 15,2 27,7 21,7 19,1 24 13 49 26 WNW 1012,2 20 15 0,0
15.07.2018 17:00:00 27,2 15,9 27,6 21,5 19,1 6 3 12 7 W 1012,1 50 0 0,0
15.07.2018 16:00:00 28,3 14,5 30,5 21,3 19,1 7 4 20 11 W 1012,0 19 38 0,0
15.07.2018 15:00:00 29,1 14,5 36,9 21,1 19,1 10 5 22 12 W 1012,7 51 60 0,0
15.07.2018 14:00:00 28,3 13,4 34,4 20,9 19,1 5 3 17 9 SSE 1013,6 60 60 0,0
15.07.2018 13:00:00 26,5 14,6 31,5 20,9 19,1 9 5 23 12 E 1014,5 19 60 0,0
15.07.2018 12:00:00 25,3 15,9 29,7 21,0 19,1 12 6 23 12 E 1015,0 29 60 0,0
15.07.2018 11:00:00 23,4 16,2 21,5 21,0 19,1 11 6 20 11 E 1015,2 27 45 0,0
15.07.2018 10:00:00 19,8 16,1 19,8 21,1 19,1 10 5 16 9 ENE 1015,9 27 0 0,0
15.07.2018 09:00:00 17,9 15,3 16,2 21,3 19,1 6 3 22 12 NW 1016,9 31 0 0,0
15.07.2018 08:00:00 17,1 14,9 15,4 21,4 19,1 10 6 27 15 S 1017,6 22 0 0,2
15.07.2018 07:00:00 15,6 15,0 12,6 21,6 19,1 11 6 14 8 E 1016,3 19 10 0,0
15.07.2018 06:00:00 13,9 13,4 11,0 21,7 19,0 5 3 6 4 ENE 1016,3 7 0 0,0
15.07.2018 05:00:00 13,6 12,8 10,3 21,8 19,1 2 1 5 3 WNW 1016,4 6 0 0,0
15.07.2018 04:00:00 14,2 13,2 10,6 22,0 19,1 0 0 9 5 N 1016,3 11 0 0,0
15.07.2018 03:00:00 14,7 13,6 12,0 22,1 19,1 3 2 8 4 E 1016,6 15 0 0,0
15.07.2018 02:00:00 15,0 14,0 12,2 22,2 19,1 5 3 10 5 ENE 1017,0 16 0 0,0
15.07.2018 01:00:00 15,3 14,2 13,0 22,3 19,1 10 5 11 6 ESE 1017,2 33 0 0,0
15.07.2018 00:00:00 15,8 14,8 14,3 22,4 19,1 7 4 14 8 ENE 1017,3 7 0 0,0
14.07.2018 23:00:00 16,4 15,3 14,3 22,4 19,1 8 4 11 6 E 1017,6 20 0 0,0
14.07.2018 22:00:00 17,8 15,1 15,6 22,4 19,1 6 4 16 9 ENE 1016,7 48 0 0,0
14.07.2018 21:00:00 18,8 15,5 17,9 22,4 19,1 14 8 27 15 ENE 1016,3 53 47 0,4
14.07.2018 20:00:00 19,2 15,5 16,2 22,3 19,1 12 7 65 35 SE 1016,1 48 2 -
14.07.2018 19:00:00 25,5 15,5 24,5 22,1 19,0 11 6 20 11 W 1014,9 19 0 0,0
14.07.2018 18:00:00 27,9 13,8 28,9 22,0 19,0 9 5 20 11 SSW 1014,1 51 21 0,0
14.07.2018 17:00:00 29,1 13,3 29,5 21,9 19,0 9 5 18 10 S 1014,4 41 32 0,0
14.07.2018 16:00:00 26,5 15,8 28,4 21,9 19,0 6 3 13 7 ESE 1015,2 35 0 0,0
14.07.2018 15:00:00 26,7 16,6 29,9 21,8 19,1 5 3 19 10 SE 1015,5 20 1 0,0
14.07.2018 14:00:00 26,7 16,6 24,9 21,7 19,0 15 8 23 13 SE 1015,8 30 7 0,0
14.07.2018 13:00:00 24,8 16,0 24,0 21,7 19,1 10 6 19 10 SSW 1016,6 28 0 0,0
14.07.2018 12:00:00 27,2 13,9 30,8 21,7 19,0 4 2 14 8 NW 1015,9 34 17 0,0
14.07.2018 11:00:00 27,0 13,4 27,6 21,8 19,0 6 3 13 7 ESE 1016,2 35 36 0,0
14.07.2018 10:00:00 24,7 13,3 27,2 21,9 19,0 9 5 19 10 E 1016,8 36 43 0,0
14.07.2018 09:00:00 23,6 13,7 23,2 22,0 19,0 14 7 22 12 E 1016,9 21 60 0,0
14.07.2018 08:00:00 20,4 14,5 17,7 22,1 19,0 11 6 16 9 E 1017,4 25 41 0,0
14.07.2018 07:00:00 18,0 13,9 15,5 22,2 19,0 13 7 20 11 E 1018,1 27 19 0,0
14.07.2018 06:00:00 16,7 13,4 14,5 22,4 19,0 11 6 17 9 E 1018,5 18 0 0,0
14.07.2018 05:00:00 15,9 13,4 13,9 22,5 19,0 9 5 11 6 E 1019,0 22 0 0,0
14.07.2018 04:00:00 15,9 13,0 12,8 22,6 19,0 8 5 11 6 NE 1018,3 28 0 0,0
14.07.2018 03:00:00 16,3 12,8 12,9 22,7 19,0 5 3 10 5 E 1018,4 30 0 0,0
14.07.2018 02:00:00 16,3 12,8 14,0 22,8 19,0 8 4 10 5 E 1018,3 29 0 0,0
14.07.2018 01:00:00 16,9 13,2 14,1 22,8 19,0 8 4 9 5 E 1018,2 23 0 0,0

tt = Température de l'air
td = dewpoint
tt 5cm = Température de l'air 5cm
tt -20cm = Température de l'air -20cm
tt -100cm = Température de l'air -100cm
ff = Vitesse du vent
fx = gusts
dd = Direction du vent
ppp = reduced air pressure
vv = visibility
sd = Ensoleillement
rr = Quantités de précipitations

stations d'obs. à proximité